Location: Proctor
(47.8934°N, 114.3048°W)
Time: 17:28:34
(UTC+00:00)

Transit 4A - Pass Details

Date: 16 May 2025
Orbit: 866 x 975 km, 66.8° (Epoch: 13 June)

Event Time Altitude Azimuth Distance (km) Brightness Sun altitude
Rises 05:40:37 0° 272° (W) 3,659 11.4 -18.3°
Reaches altitude 10° 05:44:01 10° 290° (WNW) 2,702 11.0 -18.6°
Maximum altitude 05:48:25 19° 334° (NNW) 2,087 10.7 -18.9°
Drops below altitude 10° 05:52:47 10° 19° (NNE) 2,662 10.9 -19.2°
Sets 05:56:07 0° 37° (NE) 3,586 11.4 -19.5°
